Regional Weather Roundup
Issued by NWS

Home | Current Version | Previous Version | Graphics & Text | Print | Product List | Glossary On
Versions: 1 2 3 4 5 6 7 8 9 10 11 12 13 14 15 16 17 18 19 20 21 22 23 24 25 26 27 28 29 30 31 32 33 34 35 36 37 38 39 40 41 42 43 44 45 46 47 48 49 50
000
ASUS43 KOAX 281110
RWRNE

WEATHER ROUNDUP FOR NEBRASKA
NATIONAL WEATHER SERVICE OMAHA NE
600 AM CDT THU APR 28 2016

NOTES: SATELLITE DATA IS BEING USED TO AUGMENT CLOUD COVER ABOVE
       12000 FEET.
       "FAIR" INDICATES FEW OR NO CLOUDS BELOW 12,000 FEET WITH NO
       SIGNIFICANT WEATHER AND/OR OBSTRUCTIONS TO VISIBILITY.

  * THESE STATIONS DO NOT REPORT WEATHER SUCH AS RAIN...SNOW OR FOG.

NEZ001>004-019>022-054>056-281200-
NEBRASKA PANHANDLE

CITY           SKY/WX    TMP DP  RH WIND       PRES   REMARKS
SCOTTSBLUFF    CLOUDY    33  28  81 N5        29.95S WCI  29
ALLIANCE       CLOUDY    31  28  89 N12       29.94R WCI  22
CHADRON        CLOUDY    33  30  88 N5        29.97R WCI  29
KIMBALL        PTCLDY    30  29  96 NW5       29.94R WCI  26
SIDNEY         CLEAR     25  23  92 NW12      29.94S WCI  14
$$

NEZ057>060-069>072-079>082-281200-
SOUTHWEST NEBRASKA

CITY           SKY/WX    TMP DP  RH WIND       PRES   REMARKS
NORTH PLATTE   CLEAR     31  29  92 W9        29.93R WCI  23
IMPERIAL       CLEAR     32  28  85 NW10      29.94R WCI  24
LEXINGTON      CLOUDY    35  32  88 NW13      29.91R WCI  26
MCCOOK         CLEAR     32  28  85 W10       29.92R WCI  24
OGALLALA       CLOUDY    29  27  90 W5        29.95R WCI  24
$$

NEZ005>010-023>029-035>040-094-281200-
NORTH CENTRAL NEBRASKA

CITY           SKY/WX    TMP DP  RH WIND       PRES   REMARKS
VALENTINE      CLOUDY    33  32  96 NW14      29.92R FOG     WCI  23
AINSWORTH      CLOUDY    34  34  99 NW16      29.90R FOG     WCI  24
BROKEN BOW     CLOUDY    35  33  92 NW12G21   29.88R WCI  27
O`NEILL        LGT RAIN  41  39  95 N13       29.86R
ORD            CLOUDY    40  38  93 NW15      29.85R WCI  32
THEDFORD       CLOUDY    34  33  95 NW12      29.91R WCI  26
$$

NEZ041-046>049-061>064-073>077-083>087-281200-
SOUTH CENTRAL NEBRASKA

CITY           SKY/WX    TMP DP  RH WIND       PRES   REMARKS
GRAND ISLAND   CLOUDY    40  37  89 NW18G25   29.85R WCI  31
AURORA         CLOUDY    41  40  97 NW17      29.84R FOG
HASTINGS       CLOUDY    39  35  86 NW16      29.86R WCI  30
HEBRON         CLOUDY    42  38  87 NW16G22   29.84R
HOLDREGE       MOCLDY    35  32  88 NW14G20   29.88R WCI  26
KEARNEY *      CLOUDY    37  34  87 NW14      29.89R WCI  29
YORK           CLOUDY    43  41  93 NW16      29.82R
$$

NEZ011>018-030>034-042>045-281200-
NORTHEAST NEBRASKA

CITY           SKY/WX    TMP DP  RH WIND       PRES   REMARKS
NORFOLK        LGT RAIN  41  40  96 N13       29.80R FOG
ALBION         CLOUDY    42  40  93 NW13G20   29.82R
BLAIR          DRIZZLE   47  46  97 NW8       29.73R
COLUMBUS *     CLOUDY    43  36  75 NW16      29.81R
FREMONT        CLOUDY    44  44 100 NW14      29.77R FOG
TEKAMAH        LGT RAIN  45  43  93 N13       29.75R
WAYNE          CLOUDY    42  41  95 N9        29.80R
$$

NEZ050>053-065>068-078-088>093-281200-
SOUTHEAST NEBRASKA

CITY           SKY/WX    TMP DP  RH WIND       PRES   REMARKS
LINCOLN        CLOUDY    48  43  82 NW16      29.79R
OMAHA EPPLEY   CLOUDY    47  45  93 N5        29.73R
BEATRICE       CLOUDY    45  43  95 W16G24    29.79R
FALLS CITY     CLOUDY    47  45  93 W16       29.75R
NEBRASKA CITY  CLOUDY    47  46  96 NW16G23   29.74R
PLATTSMOUTH    CLOUDY    46  45  98 W16       29.73R FOG
$$

NEZ044-045-051>053-067-281200-
OMAHA AREA

CITY           SKY/WX    TMP DP  RH WIND       PRES   REMARKS
OMAHA EPPLEY   CLOUDY    47  45  93 N5        29.73R
BLAIR          DRIZZLE   47  46  97 NW8       29.73R
FREMONT        CLOUDY    44  44 100 NW14      29.77R FOG
MILLARD        CLOUDY    48  46  92 NW14      29.74R
OFFUTT AFB     CLOUDY    48  48 100 NW8       29.73R
PLATTSMOUTH    CLOUDY    46  45  98 W16       29.73R FOG
WAHOO          CLOUDY    45  43  94 NW18      29.77R FOG
$$




USA.gov is the U.S. government's official web portal to all federal, state and local government web resources and services.